owner,sensor,date,latitude,longitude,air_pressure(mBar),qcFlag 
DISL,ioos:station:DISL:PPTA:1,2019-01-04T16:30:00Z,30.2791,-87.5561,1012.9,11111222 
DISL,ioos:station:DISL:PPTA:1,2019-01-04T17:00:00Z,30.2791,-87.5561,1012.2,11111222 
DISL,ioos:station:DISL:PPTA:1,2019-01-04T17:03:00Z,30.2791,-87.5561,1012.191971,1111122 
DISL,ioos:station:DISL:PPTA:1,2019-01-04T17:30:00Z,30.2791,-87.5561,1011.5,11111222 
DISL,ioos:station:DISL:PPTA:1,2019-01-04T17:35:00Z,30.2791,-87.5561,1011.853332,1111122 
DISL,ioos:station:DISL:PPTA:1,2019-01-04T19:00:00Z,30.2791,-87.5561,1010.8,11111222 
DISL,ioos:station:DISL:PPTA:1,2019-01-04T19:05:00Z,30.2791,-87.5561,1011.176054,1111122 
DISL,ioos:station:DISL:PPTA:1,2019-01-04T19:30:00Z,30.2791,-87.5561,1010.8,11111222 
DISL,ioos:station:DISL:PPTA:1,2019-01-04T20:00:00Z,30.2791,-87.5561,1010.5,11111222 
DISL,ioos:station:DISL:PPTA:1,2019-01-04T20:05:00Z,30.2791,-87.5561,1010.160137,1111122 
DISL,ioos:station:DISL:PPTA:1,2019-01-04T20:30:00Z,30.2791,-87.5561,1010.8,11111222 
DISL,ioos:station:DISL:PPTA:1,2019-01-04T21:00:00Z,30.2791,-87.5561,1010.8,11111222 
DISL,ioos:station:DISL:PPTA:1,2019-01-04T21:04:00Z,30.2791,-87.5561,1011.176054,1111122 
DISL,ioos:station:DISL:PPTA:1,2019-01-04T21:30:00Z,30.2791,-87.5561,1011.2,11111222 
DISL,ioos:station:DISL:PPTA:1,2019-01-04T22:00:00Z,30.2791,-87.5561,1011.5,11111222 
DISL,ioos:station:DISL:PPTA:1,2019-01-04T22:04:00Z,30.2791,-87.5561,1011.853332,1111122 
DISL,ioos:station:DISL:PPTA:1,2019-01-04T22:30:00Z,30.2791,-87.5561,1011.9,11111222 
DISL,ioos:station:DISL:PPTA:1,2019-01-04T23:00:00Z,30.2791,-87.5561,1011.9,11111222 
DISL,ioos:station:DISL:PPTA:1,2019-01-04T23:05:00Z,30.2791,-87.5561,1012.191971,1111122 
DISL,ioos:station:DISL:PPTA:1,2019-01-04T23:30:00Z,30.2791,-87.5561,1012.9,11111222 
DISL,ioos:station:DISL:PPTA:1,2019-01-05T00:00:00Z,30.2791,-87.5561,1012.9,11111222 
DISL,ioos:station:DISL:PPTA:1,2019-01-05T00:05:00Z,30.2791,-87.5561,1013.546527,1111122 
DISL,ioos:station:DISL:PPTA:1,2019-01-05T00:30:00Z,30.2791,-87.5561,1013.2,11111222 
DISL,ioos:station:DISL:PPTA:1,2019-01-05T01:00:00Z,30.2791,-87.5561,1013.5,11111222 
DISL,ioos:station:DISL:PPTA:1,2019-01-05T01:05:00Z,30.2791,-87.5561,1013.207888,1111122 
DISL,ioos:station:DISL:PPTA:1,2019-01-05T01:30:00Z,30.2791,-87.5561,1014.2,11111222 
DISL,ioos:station:DISL:PPTA:1,2019-01-05T02:00:00Z,30.2791,-87.5561,1014.2,11111222 
DISL,ioos:station:DISL:PPTA:1,2019-01-05T02:05:00Z,30.2791,-87.5561,1014.562444,1111122 
DISL,ioos:station:DISL:PPTA:1,2019-01-05T02:30:00Z,30.2791,-87.5561,1014.6,11111222 
DISL,ioos:station:DISL:PPTA:1,2019-01-05T03:00:00Z,30.2791,-87.5561,1014.9,11111222 
DISL,ioos:station:DISL:PPTA:1,2019-01-05T03:05:00Z,30.2791,-87.5561,1014.901083,1111122 
DISL,ioos:station:DISL:PPTA:1,2019-01-05T03:30:00Z,30.2791,-87.5561,1015.2,11111222 
DISL,ioos:station:DISL:PPTA:1,2019-01-05T04:00:00Z,30.2791,-87.5561,1015.6,11111222 
DISL,ioos:station:DISL:PPTA:1,2019-01-05T04:05:00Z,30.2791,-87.5561,1015.239722,1111122 
DISL,ioos:station:DISL:PPTA:1,2019-01-05T04:30:00Z,30.2791,-87.5561,1015.9,11111222 
DISL,ioos:station:DISL:PPTA:1,2019-01-05T05:00:00Z,30.2791,-87.5561,1015.9,11111222 
DISL,ioos:station:DISL:PPTA:1,2019-01-05T05:05:00Z,30.2791,-87.5561,1015.917,1111122 
DISL,ioos:station:DISL:PPTA:1,2019-01-05T05:30:00Z,30.2791,-87.5561,1016.3,11111222 
DISL,ioos:station:DISL:PPTA:1,2019-01-05T06:00:00Z,30.2791,-87.5561,1016.6,11111222 
DISL,ioos:station:DISL:PPTA:1,2019-01-05T06:05:00Z,30.2791,-87.5561,1016.255639,1111122 
DISL,ioos:station:DISL:PPTA:1,2019-01-05T06:30:00Z,30.2791,-87.5561,1016.9,11111222 
DISL,ioos:station:DISL:PPTA:1,2019-01-05T07:00:00Z,30.2791,-87.5561,1017.3,11111222 
DISL,ioos:station:DISL:PPTA:1,2019-01-05T07:05:00Z,30.2791,-87.5561,1016.932917,1111122 
DISL,ioos:station:DISL:PPTA:1,2019-01-05T07:30:00Z,30.2791,-87.5561,1017.3,11111222 
DISL,ioos:station:DISL:PPTA:1,2019-01-05T08:00:00Z,30.2791,-87.5561,1017.3,11111222 
DISL,ioos:station:DISL:PPTA:1,2019-01-05T08:05:00Z,30.2791,-87.5561,1016.932917,1111122 
DISL,ioos:station:DISL:PPTA:1,2019-01-05T08:30:00Z,30.2791,-87.5561,1017.3,11111222 
DISL,ioos:station:DISL:PPTA:1,2019-01-05T09:00:00Z,30.2791,-87.5561,1017.6,11111222 
DISL,ioos:station:DISL:PPTA:1,2019-01-05T09:05:00Z,30.2791,-87.5561,1017.610195,1111122 
DISL,ioos:station:DISL:PPTA:1,2019-01-05T09:30:00Z,30.2791,-87.5561,1018.3,11111222 
DISL,ioos:station:DISL:PPTA:1,2019-01-05T10:00:00Z,30.2791,-87.5561,1018.0,11111222 
DISL,ioos:station:DISL:PPTA:1,2019-01-05T10:05:00Z,30.2791,-87.5561,1017.610195,1111122 
DISL,ioos:station:DISL:PPTA:1,2019-01-05T10:30:00Z,30.2791,-87.5561,1018.3,11111222 
DISL,ioos:station:DISL:PPTA:1,2019-01-05T11:00:00Z,30.2791,-87.5561,1018.6,11111222 
DISL,ioos:station:DISL:PPTA:1,2019-01-05T11:05:00Z,30.2791,-87.5561,1017.948834,1111122 
DISL,ioos:station:DISL:PPTA:1,2019-01-05T11:30:00Z,30.2791,-87.5561,1019.0,11111222 
DISL,ioos:station:DISL:PPTA:1,2019-01-05T12:00:00Z,30.2791,-87.5561,1019.0,11111222 
DISL,ioos:station:DISL:PPTA:1,2019-01-05T12:05:00Z,30.2791,-87.5561,1018.626112,1111122 
DISL,ioos:station:DISL:PPTA:1,2019-01-05T12:30:00Z,30.2791,-87.5561,1019.0,11111222 
DISL,ioos:station:DISL:PPTA:1,2019-01-05T13:00:00Z,30.2791,-87.5561,1019.6,11111222 
DISL,ioos:station:DISL:PPTA:1,2019-01-05T13:05:00Z,30.2791,-87.5561,1019.642029,1111122 
DISL,ioos:station:DISL:PPTA:1,2019-01-05T13:30:00Z,30.2791,-87.5561,1020.0,11111222 
DISL,ioos:station:DISL:PPTA:1,2019-01-05T14:00:00Z,30.2791,-87.5561,1020.7,11111222 
DISL,ioos:station:DISL:PPTA:1,2019-01-05T14:05:00Z,30.2791,-87.5561,1020.996585,1111122 
DISL,ioos:station:DISL:PPTA:1,2019-01-05T14:30:00Z,30.2791,-87.5561,1021.0,11111222 
DISL,ioos:station:DISL:PPTA:1,2019-01-05T15:00:00Z,30.2791,-87.5561,1022.0,11111222 
DISL,ioos:station:DISL:PPTA:1,2019-01-05T15:05:00Z,30.2791,-87.5561,1021.673863,1111122 
DISL,ioos:station:DISL:PPTA:1,2019-01-05T15:30:00Z,30.2791,-87.5561,1022.0,11111222 
DISL,ioos:station:DISL:PPTA:1,2019-01-05T16:00:00Z,30.2791,-87.5561,1022.4,11111222 
DISL,ioos:station:DISL:PPTA:1,2019-01-05T16:05:00Z,30.2791,-87.5561,1022.012502,1111122 
DISL,ioos:station:DISL:PPTA:1,2019-01-05T16:30:00Z,30.2791,-87.5561,1022.0,11111222 
DISL,ioos:station:DISL:PPTA:1,2019-01-05T17:00:00Z,30.2791,-87.5561,1021.7,11111222 
DISL,ioos:station:DISL:PPTA:1,2019-01-05T17:05:00Z,30.2791,-87.5561,1021.335224,1111122 
DISL,ioos:station:DISL:PPTA:1,2019-01-05T17:30:00Z,30.2791,-87.5561,1021.0,11111222 
DISL,ioos:station:DISL:PPTA:1,2019-01-05T18:00:00Z,30.2791,-87.5561,1020.7,11111222 
DISL,ioos:station:DISL:PPTA:1,2019-01-05T18:05:00Z,30.2791,-87.5561,1020.657946,1111122 
DISL,ioos:station:DISL:PPTA:1,2019-01-05T18:30:00Z,30.2791,-87.5561,1020.3,11111222 
DISL,ioos:station:DISL:PPTA:1,2019-01-05T19:00:00Z,30.2791,-87.5561,1020.7,11111222 
DISL,ioos:station:DISL:PPTA:1,2019-01-05T19:05:00Z,30.2791,-87.5561,1020.319307,1111122 
DISL,ioos:station:DISL:PPTA:1,2019-01-05T19:30:00Z,30.2791,-87.5561,1020.0,11111222 
DISL,ioos:station:DISL:PPTA:1,2019-01-05T20:00:00Z,30.2791,-87.5561,1020.0,11111222 
DISL,ioos:station:DISL:PPTA:1,2019-01-05T20:05:00Z,30.2791,-87.5561,1020.319307,1111122 
DISL,ioos:station:DISL:PPTA:1,2019-01-05T20:30:00Z,30.2791,-87.5561,1020.3,11111222 
DISL,ioos:station:DISL:PPTA:1,2019-01-05T21:00:00Z,30.2791,-87.5561,1020.0,11111222 
DISL,ioos:station:DISL:PPTA:1,2019-01-05T21:05:00Z,30.2791,-87.5561,1019.980668,1111122 
DISL,ioos:station:DISL:PPTA:1,2019-01-05T21:30:00Z,30.2791,-87.5561,1020.3,11111222 
DISL,ioos:station:DISL:PPTA:1,2019-01-05T22:00:00Z,30.2791,-87.5561,1020.7,11111222 
DISL,ioos:station:DISL:PPTA:1,2019-01-05T22:05:00Z,30.2791,-87.5561,1020.319307,1111122 
DISL,ioos:station:DISL:PPTA:1,2019-01-05T22:30:00Z,30.2791,-87.5561,1020.7,11111222 
DISL,ioos:station:DISL:PPTA:1,2019-01-05T23:00:00Z,30.2791,-87.5561,1021.0,11111222 
DISL,ioos:station:DISL:PPTA:1,2019-01-05T23:05:00Z,30.2791,-87.5561,1021.335224,1111122 
DISL,ioos:station:DISL:PPTA:1,2019-01-05T23:30:00Z,30.2791,-87.5561,1021.3,11111222 
DISL,ioos:station:DISL:PPTA:1,2019-01-06T00:00:00Z,30.2791,-87.5561,1021.7,11111222 
DISL,ioos:station:DISL:PPTA:1,2019-01-06T00:05:00Z,30.2791,-87.5561,1021.673863,1111122 
DISL,ioos:station:DISL:PPTA:1,2019-01-06T00:30:00Z,30.2791,-87.5561,1021.7,11111222 
DISL,ioos:station:DISL:PPTA:1,2019-01-06T01:00:00Z,30.2791,-87.5561,1021.3,11111222 
DISL,ioos:station:DISL:PPTA:1,2019-01-06T01:05:00Z,30.2791,-87.5561,1021.673863,1111122 
DISL,ioos:station:DISL:PPTA:1,2019-01-06T01:30:00Z,30.2791,-87.5561,1021.0,11111222 
DISL,ioos:station:DISL:PPTA:1,2019-01-06T02:00:00Z,30.2791,-87.5561,1021.3,11111222 
DISL,ioos:station:DISL:PPTA:1,2019-01-06T02:05:00Z,30.2791,-87.5561,1021.673863,1111122 
DISL,ioos:station:DISL:PPTA:1,2019-01-06T02:30:00Z,30.2791,-87.5561,1021.3,11111222 
DISL,ioos:station:DISL:PPTA:1,2019-01-06T03:00:00Z,30.2791,-87.5561,1021.0,11111222 
DISL,ioos:station:DISL:PPTA:1,2019-01-06T03:30:00Z,30.2791,-87.5561,1021.0,11111222 
DISL,ioos:station:DISL:PPTA:1,2019-01-06T04:00:00Z,30.2791,-87.5561,1021.0,11111222 
DISL,ioos:station:DISL:PPTA:1,2019-01-06T04:30:00Z,30.2791,-87.5561,1021.0,11111222 
DISL,ioos:station:DISL:PPTA:1,2019-01-06T05:00:00Z,30.2791,-87.5561,1021.3,11111222 
DISL,ioos:station:DISL:PPTA:1,2019-01-06T05:30:00Z,30.2791,-87.5561,1021.0,11111222 
DISL,ioos:station:DISL:PPTA:1,2019-01-06T06:00:00Z,30.2791,-87.5561,1021.3,11111222 
DISL,ioos:station:DISL:PPTA:1,2019-01-06T06:30:00Z,30.2791,-87.5561,1022.4,11111222 
DISL,ioos:station:DISL:PPTA:1,2019-01-06T07:00:00Z,30.2791,-87.5561,1022.7,11111222 
DISL,ioos:station:DISL:PPTA:1,2019-01-06T07:30:00Z,30.2791,-87.5561,1023.0,11111222 
DISL,ioos:station:DISL:PPTA:1,2019-01-06T08:00:00Z,30.2791,-87.5561,1023.0,11111222 
DISL,ioos:station:DISL:PPTA:1,2019-01-06T08:30:00Z,30.2791,-87.5561,1023.0,11111222 
DISL,ioos:station:DISL:PPTA:1,2019-01-06T09:00:00Z,30.2791,-87.5561,1022.7,11111222 
DISL,ioos:station:DISL:PPTA:1,2019-01-06T09:30:00Z,30.2791,-87.5561,1022.4,11111222 
DISL,ioos:station:DISL:PPTA:1,2019-01-06T10:00:00Z,30.2791,-87.5561,1022.0,11111222 
DISL,ioos:station:DISL:PPTA:1,2019-01-06T10:30:00Z,30.2791,-87.5561,1021.7,11111222 
DISL,ioos:station:DISL:PPTA:1,2019-01-06T11:00:00Z,30.2791,-87.5561,1022.0,11111222 
DISL,ioos:station:DISL:PPTA:1,2019-01-06T11:30:00Z,30.2791,-87.5561,1022.7,11111222 
DISL,ioos:station:DISL:PPTA:1,2019-01-06T12:00:00Z,30.2791,-87.5561,1023.4,11111222 
DISL,ioos:station:DISL:PPTA:1,2019-01-06T12:30:00Z,30.2791,-87.5561,1023.7,11111222 
DISL,ioos:station:DISL:PPTA:1,2019-01-06T13:00:00Z,30.2791,-87.5561,1023.7,11111222 
DISL,ioos:station:DISL:PPTA:1,2019-01-06T13:30:00Z,30.2791,-87.5561,1023.7,11111222 
DISL,ioos:station:DISL:PPTA:1,2019-01-06T14:00:00Z,30.2791,-87.5561,1024.0,11111222 
DISL,ioos:station:DISL:PPTA:1,2019-01-06T14:30:00Z,30.2791,-87.5561,1024.4,11111222 
DISL,ioos:station:DISL:PPTA:1,2019-01-06T15:00:00Z,30.2791,-87.5561,1025.1,11111222 
DISL,ioos:station:DISL:PPTA:1,2019-01-06T15:30:00Z,30.2791,-87.5561,1025.1,11111222 
DISL,ioos:station:DISL:PPTA:1,2019-01-06T16:00:00Z,30.2791,-87.5561,1024.7,11111222 
DISL,ioos:station:DISL:PPTA:1,2019-01-06T16:30:00Z,30.2791,-87.5561,1023.7,11111222 
DISL,ioos:station:DISL:PPTA:1,2019-01-06T17:00:00Z,30.2791,-87.5561,1023.7,11111222 
DISL,ioos:station:DISL:PPTA:1,2019-01-06T17:05:00Z,30.2791,-87.5561,1023.705697,1111122 
DISL,ioos:station:DISL:PPTA:1,2019-01-06T17:30:00Z,30.2791,-87.5561,1023.4,11111222 
DISL,ioos:station:DISL:PPTA:1,2019-01-06T18:00:00Z,30.2791,-87.5561,1022.7,11111222 
DISL,ioos:station:DISL:PPTA:1,2019-01-06T18:05:00Z,30.2791,-87.5561,1022.68978,1111122 
DISL,ioos:station:DISL:PPTA:1,2019-01-06T18:30:00Z,30.2791,-87.5561,1022.0,11111222 
DISL,ioos:station:DISL:PPTA:1,2019-01-06T19:00:00Z,30.2791,-87.5561,1021.7,11111222 
DISL,ioos:station:DISL:PPTA:1,2019-01-06T19:05:00Z,30.2791,-87.5561,1021.673863,1111122 
DISL,ioos:station:DISL:PPTA:1,2019-01-06T19:30:00Z,30.2791,-87.5561,1021.7,11111222 
DISL,ioos:station:DISL:PPTA:1,2019-01-06T20:00:00Z,30.2791,-87.5561,1021.7,11111222 
DISL,ioos:station:DISL:PPTA:1,2019-01-06T20:05:00Z,30.2791,-87.5561,1021.335224,1111122 
DISL,ioos:station:DISL:PPTA:1,2019-01-06T20:30:00Z,30.2791,-87.5561,1021.7,11111222 
DISL,ioos:station:DISL:PPTA:1,2019-01-06T21:00:00Z,30.2791,-87.5561,1021.3,11111222 
DISL,ioos:station:DISL:PPTA:1,2019-01-06T21:05:00Z,30.2791,-87.5561,1021.335224,1111122 
DISL,ioos:station:DISL:PPTA:1,2019-01-06T21:30:00Z,30.2791,-87.5561,1021.3,11111222 
DISL,ioos:station:DISL:PPTA:1,2019-01-06T22:00:00Z,30.2791,-87.5561,1021.7,11111222 
DISL,ioos:station:DISL:PPTA:1,2019-01-06T22:05:00Z,30.2791,-87.5561,1022.012502,1111122 
DISL,ioos:station:DISL:PPTA:1,2019-01-06T22:30:00Z,30.2791,-87.5561,1022.0,11111222 
DISL,ioos:station:DISL:PPTA:1,2019-01-06T23:00:00Z,30.2791,-87.5561,1021.7,11111222 
DISL,ioos:station:DISL:PPTA:1,2019-01-06T23:05:00Z,30.2791,-87.5561,1022.012502,1111122 
DISL,ioos:station:DISL:PPTA:1,2019-01-06T23:30:00Z,30.2791,-87.5561,1022.4,11111222 
DISL,ioos:station:DISL:PPTA:1,2019-01-07T00:00:00Z,30.2791,-87.5561,1022.0,11111222 
DISL,ioos:station:DISL:PPTA:1,2019-01-07T00:05:00Z,30.2791,-87.5561,1022.351141,1111122 
DISL,ioos:station:DISL:PPTA:1,2019-01-07T00:30:00Z,30.2791,-87.5561,1022.7,11111222 
DISL,ioos:station:DISL:PPTA:1,2019-01-07T01:00:00Z,30.2791,-87.5561,1022.7,11111222 
DISL,ioos:station:DISL:PPTA:1,2019-01-07T01:05:00Z,30.2791,-87.5561,1022.68978,1111122 
DISL,ioos:station:DISL:PPTA:1,2019-01-07T01:30:00Z,30.2791,-87.5561,1022.4,11111222 
DISL,ioos:station:DISL:PPTA:1,2019-01-07T02:00:00Z,30.2791,-87.5561,1022.4,11111222 
DISL,ioos:station:DISL:PPTA:1,2019-01-07T02:05:00Z,30.2791,-87.5561,1022.68978,1111122 
DISL,ioos:station:DISL:PPTA:1,2019-01-07T02:30:00Z,30.2791,-87.5561,1022.4,11111222 
DISL,ioos:station:DISL:PPTA:1,2019-01-07T03:00:00Z,30.2791,-87.5561,1022.4,11111222 
DISL,ioos:station:DISL:PPTA:1,2019-01-07T03:05:00Z,30.2791,-87.5561,1022.351141,1111122 
DISL,ioos:station:DISL:PPTA:1,2019-01-07T03:30:00Z,30.2791,-87.5561,1022.7,11111222 
DISL,ioos:station:DISL:PPTA:1,2019-01-07T04:00:00Z,30.2791,-87.5561,1022.7,11111222 
DISL,ioos:station:DISL:PPTA:1,2019-01-07T04:05:00Z,30.2791,-87.5561,1022.351141,1111122 
DISL,ioos:station:DISL:PPTA:1,2019-01-07T04:30:00Z,30.2791,-87.5561,1023.0,11111222 
DISL,ioos:station:DISL:PPTA:1,2019-01-07T05:00:00Z,30.2791,-87.5561,1022.7,11111222 
DISL,ioos:station:DISL:PPTA:1,2019-01-07T05:05:00Z,30.2791,-87.5561,1022.351141,1111122 
DISL,ioos:station:DISL:PPTA:1,2019-01-07T05:30:00Z,30.2791,-87.5561,1022.7,11111222 
DISL,ioos:station:DISL:PPTA:1,2019-01-07T06:00:00Z,30.2791,-87.5561,1022.4,11111222 
DISL,ioos:station:DISL:PPTA:1,2019-01-07T06:05:00Z,30.2791,-87.5561,1022.012502,1111122 
DISL,ioos:station:DISL:PPTA:1,2019-01-07T06:30:00Z,30.2791,-87.5561,1022.7,11111222 
DISL,ioos:station:DISL:PPTA:1,2019-01-07T07:00:00Z,30.2791,-87.5561,1022.7,11111222 
DISL,ioos:station:DISL:PPTA:1,2019-01-07T07:05:00Z,30.2791,-87.5561,1022.351141,1111122 
DISL,ioos:station:DISL:PPTA:1,2019-01-07T07:30:00Z,30.2791,-87.5561,1022.4,11111222 
DISL,ioos:station:DISL:PPTA:1,2019-01-07T08:00:00Z,30.2791,-87.5561,1022.4,11111222 
DISL,ioos:station:DISL:PPTA:1,2019-01-07T08:30:00Z,30.2791,-87.5561,1022.4,11111222 
DISL,ioos:station:DISL:PPTA:1,2019-01-07T09:00:00Z,30.2791,-87.5561,1022.0,11111222 
DISL,ioos:station:DISL:PPTA:1,2019-01-07T09:30:00Z,30.2791,-87.5561,1021.7,11111222 
DISL,ioos:station:DISL:PPTA:1,2019-01-07T10:00:00Z,30.2791,-87.5561,1022.0,11111222 
DISL,ioos:station:DISL:PPTA:1,2019-01-07T10:30:00Z,30.2791,-87.5561,1022.0,11111222 
DISL,ioos:station:DISL:PPTA:1,2019-01-07T11:00:00Z,30.2791,-87.5561,1022.4,11111222 
DISL,ioos:station:DISL:PPTA:1,2019-01-07T11:30:00Z,30.2791,-87.5561,1022.0,11111222 
DISL,ioos:station:DISL:PPTA:1,2019-01-07T12:00:00Z,30.2791,-87.5561,1022.4,11111222 
DISL,ioos:station:DISL:PPTA:1,2019-01-07T12:30:00Z,30.2791,-87.5561,1022.7,11111222 
DISL,ioos:station:DISL:PPTA:1,2019-01-07T13:00:00Z,30.2791,-87.5561,1023.0,11111222 
DISL,ioos:station:DISL:PPTA:1,2019-01-07T13:30:00Z,30.2791,-87.5561,1023.4,11111222 
DISL,ioos:station:DISL:PPTA:1,2019-01-07T14:00:00Z,30.2791,-87.5561,1023.7,11111222 
DISL,ioos:station:DISL:PPTA:1,2019-01-07T14:30:00Z,30.2791,-87.5561,1024.7,11111222 
DISL,ioos:station:DISL:PPTA:1,2019-01-07T15:00:00Z,30.2791,-87.5561,1024.7,11111222 
DISL,ioos:station:DISL:PPTA:1,2019-01-07T15:30:00Z,30.2791,-87.5561,1025.1,11111222 
DISL,ioos:station:DISL:PPTA:1,2019-01-07T16:00:00Z,30.2791,-87.5561,1024.7,11111222 
DISL,ioos:station:DISL:PPTA:1,2019-01-07T16:05:00Z,30.2791,-87.5561,1024.721614,1111122 
DISL,ioos:station:DISL:PPTA:1,2019-01-07T16:30:00Z,30.2791,-87.5561,1024.7,11111222 
DISL,ioos:station:DISL:PPTA:1,2019-01-07T17:00:00Z,30.2791,-87.5561,1024.4,11111222 
DISL,ioos:station:DISL:PPTA:1,2019-01-07T17:05:00Z,30.2791,-87.5561,1024.382975,1111122 
DISL,ioos:station:DISL:PPTA:1,2019-01-07T17:30:00Z,30.2791,-87.5561,1023.7,11111222 
DISL,ioos:station:DISL:PPTA:1,2019-01-07T18:00:00Z,30.2791,-87.5561,1023.0,11111222 
DISL,ioos:station:DISL:PPTA:1,2019-01-07T18:05:00Z,30.2791,-87.5561,1022.68978,1111122 
DISL,ioos:station:DISL:PPTA:1,2019-01-07T18:30:00Z,30.2791,-87.5561,1022.7,11111222 
DISL,ioos:station:DISL:PPTA:1,2019-01-07T19:00:00Z,30.2791,-87.5561,1022.4,11111222 
DISL,ioos:station:DISL:PPTA:1,2019-01-07T19:05:00Z,30.2791,-87.5561,1022.351141,1111122 
DISL,ioos:station:DISL:PPTA:1,2019-01-07T19:30:00Z,30.2791,-87.5561,1022.0,11111222 
DISL,ioos:station:DISL:PPTA:1,2019-01-07T20:00:00Z,30.2791,-87.5561,1022.4,11111222 
DISL,ioos:station:DISL:PPTA:1,2019-01-07T20:05:00Z,30.2791,-87.5561,1022.351141,1111122 
DISL,ioos:station:DISL:PPTA:1,2019-01-07T20:30:00Z,30.2791,-87.5561,1022.4,11111222 
DISL,ioos:station:DISL:PPTA:1,2019-01-07T21:00:00Z,30.2791,-87.5561,1022.4,11111222 
DISL,ioos:station:DISL:PPTA:1,2019-01-07T21:05:00Z,30.2791,-87.5561,1022.68978,1111122 
DISL,ioos:station:DISL:PPTA:1,2019-01-07T21:30:00Z,30.2791,-87.5561,1022.4,11111222 
DISL,ioos:station:DISL:PPTA:1,2019-01-07T22:00:00Z,30.2791,-87.5561,1022.4,11111222 
DISL,ioos:station:DISL:PPTA:1,2019-01-07T22:05:00Z,30.2791,-87.5561,1022.351141,1111122 
DISL,ioos:station:DISL:PPTA:1,2019-01-07T22:30:00Z,30.2791,-87.5561,1022.4,11111222 
DISL,ioos:station:DISL:PPTA:1,2019-01-07T23:00:00Z,30.2791,-87.5561,1022.4,11111222 
DISL,ioos:station:DISL:PPTA:1,2019-01-07T23:05:00Z,30.2791,-87.5561,1022.68978,1111122 
DISL,ioos:station:DISL:PPTA:1,2019-01-07T23:30:00Z,30.2791,-87.5561,1022.7,11111222 
DISL,ioos:station:DISL:PPTA:1,2019-01-08T00:00:00Z,30.2791,-87.5561,1022.7,11111222 
DISL,ioos:station:DISL:PPTA:1,2019-01-08T00:05:00Z,30.2791,-87.5561,1022.351141,1111122 
DISL,ioos:station:DISL:PPTA:1,2019-01-08T00:30:00Z,30.2791,-87.5561,1021.7,11111222 
DISL,ioos:station:DISL:PPTA:1,2019-01-08T01:00:00Z,30.2791,-87.5561,1021.7,11111222 
DISL,ioos:station:DISL:PPTA:1,2019-01-08T01:05:00Z,30.2791,-87.5561,1022.012502,1111122 
DISL,ioos:station:DISL:PPTA:1,2019-01-08T01:30:00Z,30.2791,-87.5561,1022.0,11111222 
DISL,ioos:station:DISL:PPTA:1,2019-01-08T02:00:00Z,30.2791,-87.5561,1022.0,11111222 
DISL,ioos:station:DISL:PPTA:1,2019-01-08T02:05:00Z,30.2791,-87.5561,1022.012502,1111122 
DISL,ioos:station:DISL:PPTA:1,2019-01-08T02:30:00Z,30.2791,-87.5561,1022.0,11111222 
DISL,ioos:station:DISL:PPTA:1,2019-01-08T03:00:00Z,30.2791,-87.5561,1021.7,11111222 
DISL,ioos:station:DISL:PPTA:1,2019-01-08T03:05:00Z,30.2791,-87.5561,1021.673863,1111122 
DISL,ioos:station:DISL:PPTA:1,2019-01-08T03:30:00Z,30.2791,-87.5561,1021.7,11111222 
DISL,ioos:station:DISL:PPTA:1,2019-01-08T04:00:00Z,30.2791,-87.5561,1022.0,11111222 
DISL,ioos:station:DISL:PPTA:1,2019-01-08T04:05:00Z,30.2791,-87.5561,1022.012502,1111122 
DISL,ioos:station:DISL:PPTA:1,2019-01-08T04:30:00Z,30.2791,-87.5561,1021.7,11111222 
DISL,ioos:station:DISL:PPTA:1,2019-01-08T05:00:00Z,30.2791,-87.5561,1020.7,11111222 
DISL,ioos:station:DISL:PPTA:1,2019-01-08T05:05:00Z,30.2791,-87.5561,1020.657946,1111122 
DISL,ioos:station:DISL:PPTA:1,2019-01-08T05:30:00Z,30.2791,-87.5561,1020.7,11111222 
DISL,ioos:station:DISL:PPTA:1,2019-01-08T06:00:00Z,30.2791,-87.5561,1021.7,11111222 
DISL,ioos:station:DISL:PPTA:1,2019-01-08T06:05:00Z,30.2791,-87.5561,1022.012502,1111122 
DISL,ioos:station:DISL:PPTA:1,2019-01-08T06:30:00Z,30.2791,-87.5561,1022.0,11111222 
DISL,ioos:station:DISL:PPTA:1,2019-01-08T07:00:00Z,30.2791,-87.5561,1022.0,11111222 
DISL,ioos:station:DISL:PPTA:1,2019-01-08T07:05:00Z,30.2791,-87.5561,1022.012502,1111122 
DISL,ioos:station:DISL:PPTA:1,2019-01-08T07:30:00Z,30.2791,-87.5561,1022.0,11111222 
DISL,ioos:station:DISL:PPTA:1,2019-01-08T08:00:00Z,30.2791,-87.5561,1022.0,11111222 
DISL,ioos:station:DISL:PPTA:1,2019-01-08T08:05:00Z,30.2791,-87.5561,1022.012502,1111122 
DISL,ioos:station:DISL:PPTA:1,2019-01-08T08:30:00Z,30.2791,-87.5561,1022.4,11111222 
DISL,ioos:station:DISL:PPTA:1,2019-01-08T09:00:00Z,30.2791,-87.5561,1022.4,11111222 
DISL,ioos:station:DISL:PPTA:1,2019-01-08T09:05:00Z,30.2791,-87.5561,1022.68978,1111122 
DISL,ioos:station:DISL:PPTA:1,2019-01-08T09:30:00Z,30.2791,-87.5561,1022.4,11111222 
DISL,ioos:station:DISL:PPTA:1,2019-01-08T10:00:00Z,30.2791,-87.5561,1022.0,11111222 
DISL,ioos:station:DISL:PPTA:1,2019-01-08T10:05:00Z,30.2791,-87.5561,1021.673863,1111122 
DISL,ioos:station:DISL:PPTA:1,2019-01-08T10:30:00Z,30.2791,-87.5561,1022.0,11111222 
DISL,ioos:station:DISL:PPTA:1,2019-01-08T11:00:00Z,30.2791,-87.5561,1022.4,11111222 
DISL,ioos:station:DISL:PPTA:1,2019-01-08T11:05:00Z,30.2791,-87.5561,1022.351141,1111122 
DISL,ioos:station:DISL:PPTA:1,2019-01-08T11:30:00Z,30.2791,-87.5561,1022.4,11111222 
DISL,ioos:station:DISL:PPTA:1,2019-01-08T12:00:00Z,30.2791,-87.5561,1022.7,11111222 
DISL,ioos:station:DISL:PPTA:1,2019-01-08T12:05:00Z,30.2791,-87.5561,1022.68978,1111122 
DISL,ioos:station:DISL:PPTA:1,2019-01-08T12:30:00Z,30.2791,-87.5561,1022.7,11111222 
DISL,ioos:station:DISL:PPTA:1,2019-01-08T13:00:00Z,30.2791,-87.5561,1022.7,11111222 
DISL,ioos:station:DISL:PPTA:1,2019-01-08T13:05:00Z,30.2791,-87.5561,1023.367058,1111122 
DISL,ioos:station:DISL:PPTA:1,2019-01-08T13:30:00Z,30.2791,-87.5561,1023.0,11111222 
DISL,ioos:station:DISL:PPTA:1,2019-01-08T14:00:00Z,30.2791,-87.5561,1023.0,11111222 
DISL,ioos:station:DISL:PPTA:1,2019-01-08T14:05:00Z,30.2791,-87.5561,1023.367058,1111122 
DISL,ioos:station:DISL:PPTA:1,2019-01-08T14:30:00Z,30.2791,-87.5561,1023.4,11111222 
DISL,ioos:station:DISL:PPTA:1,2019-01-08T15:00:00Z,30.2791,-87.5561,1024.0,11111222 
DISL,ioos:station:DISL:PPTA:1,2019-01-08T15:05:00Z,30.2791,-87.5561,1024.044336,1111122 
DISL,ioos:station:DISL:PPTA:1,2019-01-08T15:30:00Z,30.2791,-87.5561,1024.4,11111222 
DISL,ioos:station:DISL:PPTA:1,2019-01-08T16:00:00Z,30.2791,-87.5561,1024.0,11111222 
DISL,ioos:station:DISL:PPTA:1,2019-01-08T16:05:00Z,30.2791,-87.5561,1024.044336,1111122 
DISL,ioos:station:DISL:PPTA:1,2019-01-08T16:30:00Z,30.2791,-87.5561,1024.0,11111222 
DISL,ioos:station:DISL:PPTA:1,2019-01-08T17:00:00Z,30.2791,-87.5561,1023.4,11111222 
DISL,ioos:station:DISL:PPTA:1,2019-01-08T17:05:00Z,30.2791,-87.5561,1023.367058,1111122 
DISL,ioos:station:DISL:PPTA:1,2019-01-08T17:30:00Z,30.2791,-87.5561,1022.4,11111222 
DISL,ioos:station:DISL:PPTA:1,2019-01-08T18:00:00Z,30.2791,-87.5561,1022.0,11111222 
DISL,ioos:station:DISL:PPTA:1,2019-01-08T18:05:00Z,30.2791,-87.5561,1021.673863,1111122 
DISL,ioos:station:DISL:PPTA:1,2019-01-08T18:30:00Z,30.2791,-87.5561,1022.0,11111222 
DISL,ioos:station:DISL:PPTA:1,2019-01-08T19:00:00Z,30.2791,-87.5561,1021.7,11111222 
DISL,ioos:station:DISL:PPTA:1,2019-01-08T19:05:00Z,30.2791,-87.5561,1021.673863,1111122 
DISL,ioos:station:DISL:PPTA:1,2019-01-08T19:30:00Z,30.2791,-87.5561,1021.0,11111222 
DISL,ioos:station:DISL:PPTA:1,2019-01-08T20:00:00Z,30.2791,-87.5561,1020.7,11111222 
DISL,ioos:station:DISL:PPTA:1,2019-01-08T20:05:00Z,30.2791,-87.5561,1020.657946,1111122 
DISL,ioos:station:DISL:PPTA:1,2019-01-08T20:30:00Z,30.2791,-87.5561,1021.0,11111222 
DISL,ioos:station:DISL:PPTA:1,2019-01-08T21:00:00Z,30.2791,-87.5561,1020.7,11111222 